[[{"header":{"parameterUnit":"m.s-1","parameterCategory":1,"la1":30.2991,"la2":30.254,"lo1":-89.0895,"lo2":-89.0444,"dy":0.0017,"dx":0.0017,"nx":28,"ny":28,"refTime":"2025-03-24T03:00:00:Z","depth":0,"parameterNumber":2,"parameterNumberName":"U-component_of_WINDS"},"data":[0,0,0,0,0,0,0,0,0,0,0,0,0,0,0,0,0,0,0,0,0,0,0,0,0,0,0,0,0,0,0,0,0,0,0,0,0,0,0,0,0,0,0,0,0,0,0,0,0,0,0,0,0,0,0,0,0,0,-1.0736,-1.0736,0,-1.0735,-1.0735,-1.0735,-1.0638,-1.0635,-1.0633,-1.063,-1.0636,-1.0639,-1.0641,0,0,0,0,0,0,0,0,0,0,0,0,0,-1.0661,-1.0663,-1.0736,-1.0736,-1.0736,-1.0735,-1.0735,-1.0735,-1.0638,-1.0635,-1.0632,-1.0629,-1.0636,-1.0639,-1.0642,0,0,0,0,0,0,0,0,0,0,0,0,0,-1.0681,-1.0664,-1.0736,-1.0687,-1.0683,-1.0735,-1.0735,-1.0735,-1.0639,-1.0635,-1.0631,-1.0628,-1.0635,-1.0638,-1.0642,-1.0743,0,0,-1.0654,-1.0655,0,0,0,0,0,0,0,0,-1.068,-1.0683,-1.0694,-1.0691,-1.0686,-1.0682,-1.0711,-1.0738,-1.064,-1.0656,-1.063,-1.0626,-1.0655,-1.0657,-1.0666,-1.0743,-1.0743,-1.0654,-1.0656,-1.0658,-1.0659,0,0,0,0,0,0,0,-1.0678,-1.0683,-1.0736,-1.0695,-1.0689,-1.0668,-1.0667,-1.0716,-1.0678,-1.0654,-1.0647,-1.0648,-1.0652,-1.0662,-1.0665,-1.0743,-1.0654,-1.0657,-1.066,-1.0661,-1.0907,-1.0911,0,0,0,0,0,0,-1.0683,-1.0682,-1.0736,-1.0736,-1.0673,-1.0673,-1.0671,-1.0688,-1.0677,-1.0671,-1.0651,-1.0643,-1.0658,-1.0661,-1.0665,-1.0784,-1.0658,-1.0662,-1.0664,-1.0903,-1.0908,-1.0913,0,0,0,0,0,0,-1.0681,-1.0688,-1.0736,-1.0707,-1.0711,-1.0678,-1.0698,-1.069,-1.0699,-1.0674,-1.0668,-1.0668,-1.0655,-1.066,-1.0724,-1.0783,-1.0663,-1.0667,-1.0898,-1.0904,-1.091,-1.1022,0,0,0,0,0,0,-1.068,-1.0688,-1.0724,-1.0709,-1.0713,-1.0793,-1.0701,-1.0692,-1.0705,-1.0695,-1.0688,-1.0683,-1.0652,-1.0719,-1.0728,-1.0786,-1.067,-1.0893,-1.0901,-1.0908,-1.1013,-1.1032,-1.1047,0,0,0,0,0,-1.0677,-1.0757,-1.0726,-1.0733,-1.0757,-1.0796,-1.0799,-1.076,-1.071,-1.0748,-1.0732,-1.0684,-1.0775,-1.0727,-1.0736,-1.0796,-1.0889,-1.0898,-1.0908,-1.1006,-1.1028,-1.1047,0,0,0,0,0,0,-1.0782,-1.0753,-1.072,-1.0796,-1.0799,-1.078,-1.0825,-1.0784,-1.0803,-1.0793,-1.0745,-1.0745,-1.0818,-1.0813,-1.076,-1.0895,-1.0824,-1.0835,-1.0895,-1.0916,-1.0933,-1.0933,-1.0673,0,0,0,0,0,-1.0813,-1.0845,-1.082,-1.089,-1.0893,-1.0859,-1.0875,-1.0844,-1.0846,-1.0848,-1.0837,-1.0843,-1.0873,-1.0894,-1.092,-1.1012,-1.1011,-1.1058,-1.1075,-1.109,-1.1101,-1.1152,-1.1173,-1.0944,-1.0944,-1.0944,0,0,-1.0879,-1.0868,-1.0891,-1.091,-1.0909,-1.0946,-1.0861,-1.0903,-1.0931,-1.0855,-1.0915,-1.0908,-1.0912,-1.0991,-1.1026,-1.099,-1.1164,-1.1102,-1.1113,-1.1117,-1.1164,-1.1186,-1.1205,-1.095,-1.0949,-1.0948,0,0,-1.1019,-1.1012,-1.107,-1.1071,-1.107,-1.1048,-1.1062,-1.1049,-1.1041,-1.1101,-1.1045,-1.1079,-1.1131,-1.1137,-1.1147,-1.1292,-1.125,-1.1302,-1.1392,-1.1443,-1.1461,-1.1477,-1.153,-1.155,-1.1313,-1.1314,-1.1314,0,-1.1101,-1.1152,-1.1106,-1.1152,-1.1164,-1.1095,-1.1156,-1.116,-1.1169,-1.118,-1.1138,-1.1204,-1.1202,-1.1283,-1.1319,-1.1329,-1.1346,-1.1303,-1.1461,-1.1477,-1.1491,-1.1542,-1.1562,-1.132,-1.1319,-1.1319,-1.1318,0,-1.1255,-1.1292,-1.134,-1.1348,-1.1365,-1.1418,-1.1383,-1.1407,-1.1376,-1.1359,-1.1422,-1.1417,-1.1443,-1.146,-1.143,-1.1538,-1.1516,-1.1469,-1.1397,-1.152,-1.1567,-1.1586,-1.133,-1.1327,-1.1325,-1.1324,0,0,-1.1459,-1.1443,-1.1461,-1.1465,-1.146,-1.1489,-1.1541,-1.1564,-1.1586,-1.1596,-1.164,-1.1687,-1.1644,-1.1656,-1.1626,-1.1671,-1.1789,-1.1619,-1.1618,-1.1652,-1.1911,-1.1947,-1.197,-1.176,-1.1764,-1.1767,-1.1911,0,-1.1595,-1.168,-1.1642,-1.1732,-1.1767,-1.1704,-1.175,-1.1754,-1.174,-1.177,-1.1756,-1.1791,-1.173,-1.1738,-1.1778,-1.1766,-1.1841,-1.1755,-1.1804,-1.1807,-1.1806,-1.1995,-1.2032,-1.2169,-1.1929,-1.1932,-1.1935,0,-1.1765,-1.178,-1.1874,-1.1864,-1.1878,-1.1919,-1.1939,-1.1967,-1.1972,-1.1959,-1.1973,-1.1935,-1.1989,-1.1917,-1.1992,-1.1935,-1.1953,-1.195,-1.1955,-1.1959,-1.1879,-1.2006,-1.2211,-1.2233,-1.1963,-1.1961,-1.1959,0,-1.1907,-1.1951,-1.2013,-1.2018,-1.2009,-1.204,-1.2038,-1.2038,-1.2055,-1.2074,-1.2085,-1.211,-1.2125,-1.2146,-1.2117,-1.2067,-1.2198,-1.2123,-1.2192,-1.2193,-1.2223,-1.2221,-1.2436,-1.2233,-1.2232,-1.2232,-1.2232,0,-1.2064,-1.2124,-1.2076,-1.2115,-1.2182,-1.2139,-1.2207,-1.2199,-1.22,-1.2239,-1.2186,-1.2224,-1.2182,-1.2217,-1.2195,-1.2263,-1.2269,-1.2263,-1.2256,-1.2268,-1.2269,-1.228,-1.2271,-1.2237,-1.2236,-1.2235,-1.2234,0,-1.2233,-1.2203,-1.2267,-1.2253,-1.2251,-1.2302,-1.2291,-1.2328,-1.2311,-1.236,-1.237,-1.2345,-1.2383,-1.2356,-1.2395,-1.238,-1.2469,-1.2449,-1.2467,-1.2462,-1.2533,-1.2528,-1.2764,-1.2794,-1.257,-1.2572,-1.2574,0,-1.2336,-1.238,-1.2371,-1.2392,-1.2393,-1.2427,-1.2444,-1.2405,-1.2426,-1.2436,-1.2472,-1.2506,-1.2531,-1.2596,-1.2583,-1.2613,-1.2595,-1.2675,-1.2599,-1.261,-1.2598,-1.2597,-1.2602,-1.2691,-1.2694,-1.2696,-1.2698,0,-1.2521,-1.2505,-1.253,-1.2552,-1.2574,-1.2589,-1.2601,-1.2622,-1.2582,-1.2609,-1.2646,-1.2666,-1.2705,-1.2741,-1.2767,-1.2768,-1.2728,-1.2722,-1.274,-1.2753,-1.2762,-1.276,-1.2511,-1.2717,-1.2715,-1.2713,-1.2712,-1.2712,-1.2662,-1.2699,-1.2699,-1.273,-1.2735,-1.2748,-1.2782,-1.277,-1.2799,-1.2827,-1.2803,-1.2849,-1.2856,-1.2886,-1.2893,-1.2931,-1.2898,-1.2924,-1.293,-1.2938,-1.2949,-1.2755,-1.2935,-1.2935,-1.2934,-1.2934,-1.2933,0,-1.2846,-1.2843,-1.2872,-1.289,-1.2916,-1.2873,-1.2885,-1.291,-1.295,-1.2959,-1.2984,-1.303,-1.3065,-1.3055,-1.3087,-1.312,-1.3102,-1.313,-1.3128,-1.3129,-1.2975,-1.2957,-1.3143,-1.3143,-1.3143,-1.3143,-1.3143,-1.3143,-1.2945,-1.3008,-1.2992,-1.3058,-1.3055,-1.3098,-1.3109,-1.3122,-1.3128,-1.3181,-1.3209,-1.3201,-1.3204,-1.3236,-1.3267,-1.3264,-1.3279,-1.3314,-1.3304,-1.316,-1.314,-1.312,-1.3103,-1.3317,-1.3317,-1.3455,-1.3457,-1.3458]},{"header":{"parameterUnit":"m.s-1","parameterCategory":1,"la1":30.2991,"la2":30.254,"lo1":-89.0895,"lo2":-89.0444,"dy":0.0017,"dx":0.0017,"nx":28,"ny":28,"refTime":"2025-03-24T03:00:00:Z","depth":0,"parameterNumber":3,"parameterNumberName":"V-component_of_WINDS"},"data":[0,0,0,0,0,0,0,0,0,0,0,0,0,0,0,0,0,0,0,0,0,0,0,0,0,0,0,0,0,0,0,0,0,0,0,0,0,0,0,0,0,0,0,0,0,0,0,0,0,0,0,0,0,0,0,0,0,0,3.2255,3.2256,0,3.2318,3.2318,3.2319,3.229,3.2288,3.2287,3.2285,3.2347,3.235,3.2354,0,0,0,0,0,0,0,0,0,0,0,0,0,3.2112,3.2115,3.2255,3.2256,3.2257,3.2317,3.2318,3.2319,3.229,3.2288,3.2286,3.2285,3.2346,3.235,3.2354,0,0,0,0,0,0,0,0,0,0,0,0,0,3.2174,3.2115,3.2255,3.225,3.225,3.2317,3.2318,3.2319,3.2291,3.2288,3.2286,3.2284,3.2345,3.235,3.2354,3.243,0,0,3.2369,3.2371,0,0,0,0,0,0,0,0,3.2171,3.2179,3.225,3.225,3.2251,3.2294,3.229,3.2357,3.2291,3.2275,3.2285,3.2282,3.2331,3.2337,3.2354,3.2433,3.2436,3.2369,3.2372,3.2374,3.2375,0,0,0,0,0,0,0,3.2166,3.2176,3.228,3.2251,3.2251,3.2244,3.2251,3.2303,3.2316,3.2276,3.2274,3.2282,3.2331,3.2349,3.2355,3.2437,3.2369,3.2373,3.2376,3.2378,3.2586,3.2588,0,0,0,0,0,0,3.2162,3.2173,3.2278,3.2282,3.2204,3.2249,3.2256,3.2282,3.2315,3.2318,3.2284,3.2281,3.2343,3.235,3.2357,3.2452,3.2374,3.2378,3.2381,3.2583,3.2586,3.2589,0,0,0,0,0,0,3.2159,3.2172,3.2275,3.2227,3.224,3.2254,3.2284,3.2285,3.2303,3.2321,3.2323,3.2301,3.2341,3.2351,3.2413,3.2453,3.238,3.2385,3.258,3.2584,3.2588,3.2639,0,0,0,0,0,0,3.2155,3.2171,3.22,3.2228,3.2242,3.2331,3.2286,3.2288,3.2311,3.2307,3.2337,3.2339,3.234,3.2407,3.2418,3.2458,3.2388,3.2576,3.2582,3.2586,3.2634,3.2644,3.2653,0,0,0,0,0,3.215,3.221,3.2201,3.2214,3.2279,3.2333,3.2341,3.2341,3.2314,3.2344,3.2356,3.2339,3.2446,3.2413,3.2426,3.2468,3.2574,3.258,3.2586,3.2629,3.2642,3.2653,0,0,0,0,0,0,3.2186,3.2214,3.2204,3.2275,3.2302,3.2328,3.2365,3.2354,3.2388,3.2383,3.238,3.2387,3.2454,3.2466,3.2429,3.2545,3.2506,3.2515,3.2535,3.2547,3.2556,3.2553,3.2392,0,0,0,0,0,3.2202,3.2244,3.2266,3.2327,3.2341,3.2351,3.2374,3.2372,3.2399,3.241,3.2427,3.2454,3.2494,3.2521,3.2558,3.2635,3.2642,3.267,3.268,3.2688,3.2696,3.2741,3.2755,3.2609,3.2609,3.2609,0,0,3.2235,3.2256,3.2283,3.2334,3.2355,3.2399,3.236,3.2408,3.2441,3.2417,3.2479,3.2492,3.2522,3.2593,3.2625,3.2606,3.2738,3.2695,3.2702,3.2706,3.2749,3.2763,3.2775,3.2613,3.2613,3.2612,0,0,3.2321,3.2339,3.2394,3.2416,3.2448,3.2454,3.2467,3.2496,3.2504,3.2566,3.255,3.2589,3.2657,3.2681,3.2701,3.2798,3.2784,3.281,3.2861,3.2905,3.2917,3.2927,3.2965,3.2978,3.2818,3.2818,3.2818,0,3.2359,3.2425,3.2423,3.2473,3.2498,3.2479,3.2535,3.2556,3.2598,3.2616,3.2594,3.2682,3.27,3.2779,3.2803,3.2819,3.2835,3.2808,3.2915,3.2926,3.2935,3.2971,3.2985,3.2821,3.2821,3.282,3.282,0,3.2472,3.2518,3.2558,3.2602,3.263,3.2683,3.269,3.2719,3.2714,3.2723,3.2788,3.281,3.2854,3.2871,3.2866,3.295,3.2937,3.2915,3.2876,3.2952,3.2987,3.3,3.2826,3.2824,3.2823,3.2823,0,0,3.2582,3.2625,3.264,3.2661,3.2696,3.2732,3.2784,3.2828,3.2855,3.2884,3.293,3.2989,3.297,3.2994,3.2991,3.3029,3.3109,3.3003,3.3004,3.3025,3.3207,3.3226,3.3242,3.3099,3.3102,3.3104,3.3205,0,3.2672,3.2766,3.2766,3.2852,3.2897,3.288,3.2926,3.2953,3.2963,3.3003,3.3013,3.3057,3.3026,3.3042,3.3078,3.3092,3.3146,3.3084,3.3144,3.3146,3.314,3.3259,3.3278,3.3373,3.3218,3.322,3.3222,0,3.2791,3.2827,3.2918,3.2949,3.2968,3.3009,3.3051,3.3088,3.3119,3.3124,3.3151,3.3144,3.3199,3.3156,3.3233,3.3191,3.3215,3.3226,3.3229,3.3238,3.3191,3.3274,3.3403,3.3419,3.3242,3.3241,3.3239,0,3.2867,3.2938,3.3002,3.302,3.3057,3.3087,3.3104,3.3132,3.3159,3.3195,3.3214,3.3255,3.3278,3.3311,3.3315,3.3283,3.3394,3.3351,3.3402,3.3402,3.3428,3.3427,3.3567,3.3438,3.3438,3.3437,3.3437,0,3.297,3.3028,3.3038,3.3078,3.3142,3.3142,3.3206,3.322,3.3246,3.3289,3.3275,3.3316,3.3318,3.336,3.3363,3.3429,3.3438,3.3445,3.3446,3.3449,3.3449,3.3467,3.3462,3.3441,3.344,3.344,3.3439,0,3.3067,3.3076,3.3146,3.3176,3.3185,3.3231,3.3257,3.3296,3.3305,3.336,3.3373,3.3387,3.3437,3.3444,3.35,3.3503,3.3583,3.3575,3.3573,3.3574,3.3625,3.3622,3.3785,3.3808,3.366,3.3662,3.3663,0,3.3135,3.3179,3.3214,3.3243,3.3261,3.3307,3.3335,3.3337,3.3367,3.3407,3.3441,3.3489,3.3529,3.3608,3.3624,3.3669,3.3664,3.3718,3.3671,3.3673,3.367,3.3669,3.3675,3.3728,3.373,3.3731,3.3732,0,3.3254,3.3257,3.3299,3.3343,3.3377,3.3412,3.3444,3.3468,3.3474,3.3509,3.356,3.359,3.365,3.3699,3.3743,3.376,3.3749,3.3747,3.3762,3.3767,3.3766,3.3771,3.3603,3.3744,3.3742,3.3742,3.3741,3.3741,3.3341,3.3381,3.3413,3.3461,3.3486,3.3517,3.3556,3.3571,3.3613,3.3663,3.3661,3.3718,3.3749,3.3808,3.3828,3.3874,3.3856,3.3877,3.3883,3.3889,3.3896,3.3755,3.3881,3.3881,3.388,3.388,3.388,0,3.3464,3.3484,3.3528,3.3575,3.3613,3.3597,3.3633,3.3666,3.3717,3.3747,3.3787,3.3847,3.3895,3.3915,3.3962,3.3995,3.3991,3.4008,3.4007,3.4012,3.3907,3.3891,3.401,3.401,3.401,3.401,3.401,3.401,3.3533,3.3601,3.3608,3.3689,3.3708,3.3765,3.3787,3.3816,3.3841,3.3909,3.3949,3.3962,3.3989,3.4039,3.4083,3.4087,3.4107,3.4127,3.413,3.4032,3.4019,3.4007,3.3992,3.4131,3.4131,3.4232,3.4233,3.4234]}]]